THOR ABLESTAR DEB, 299

Orbit data source: Space-Track

THOR ABLESTAR DEB, 299 is space debris in LEO originally from a launch on Thu, 29 Jun 1961 UTC launched from the Air Force Eastern Test Range (AFETR). Debris objects in space refer to the collection of defunct objects orbiting the Earth. Examples of debris include non-operational satellites, rocket bodies, and fragments generated from explosions, collisions, or faulty payload assembly.

Loading next visibility...
Identifier
299, 1961-015CQ
Orbit
LEO
Country
Flag of USUS
Related business
Manufacturer
Unknown
Mission
Spacecraft
Bus & Motor
Unknown
Mass
Unknown
Launch date (UTC)
1961-06-29 (65 years ago)
Launch vehicle
Unknown
Launch site
Air Force Eastern Test Range (AFETR)
Object type
Payload
Rocket body
Debris
Shape & HBR
Unknown shape, 0.1 m
Radar Cross Section
Small (<0.1 m²)

Expand to show TLE details & history
Last TLE update: 1 day ago

TLE from 1 day ago
0 THOR ABLESTAR DEB
1 00299U 61015CQ  26140.30438406  .00000029  00000-0  10020-3 0  9991
2 00299  67.1664  98.7243 0197219 317.4778  41.1158 13.69013908225246
Epoch: 2026-05-20T07:18Z
TLE epoch observation values (Epoch: 2026-05-20T07:18:18.782Z)
Latitude
-0.00005°
Longitude
111.18016°
Altitude
896.783 km
Speed
7.458 km/s
True Right ascension
06h 34m 53s
True Declination
0° 00' 00"
Sunlit
Object was in daylight at epoch
Visualization orbit readout
Latitude
Unknown
Longitude
Unknown
Altitude
Unknown
Speed
Unknown
Apparent Right ascension
Unknown
Apparent Declination
Unknown
Sunlit
N/A
Visualization observer readout
Local Sidereal Time
19:59:07
Azimuth
Unknown
Elevation
Unknown
Doppler factor
Unknown
Orbital elements
Apogee altitude
1,147.022 km
Perigee altitude
855.941 km
Semi-major axis
7,379.619 km
Eccentricity
0.01972
Inclination
67.1664°
RAAN
98.7243°
Arg. of periapsis
317.4778°
True anomaly
42.62984°
Mean anomaly
41.1158°
Eccentric anomaly
41.87°
Mean motion
3.42367 °/min
Orbital period
105.15 mins
BSTAR
0.0001002
Loading maneuver chart data...
Computing Atmospheric mass density...
Loading historical data...
Loading historical data...
Loading historical data...
Loading historical data...
Loading historical data...
Loading historical data...
Loading historical data...

Documentation

Showing up to 5 results
|